| time (UTC) | temp C | wind direction | speed KPH | gust KPH | rain 1hr cm | rain 24hr cm | rain mn cm | humidity % | barometer mb |
| 20260905161422 | 25 | 71 | 0.0 | 0.0 | 0.00 | 0.69 | 0.03 | 88 | 1012.9 |
| 20260905161151 | 25 | 71 | 0.0 | 0.0 | 0.00 | 0.69 | 0.03 | 88 | 1013.0 |
| 20260905160416 | 25 | 71 | 0.0 | 0.0 | 0.00 | 0.69 | 0.03 | 87 | 1013.0 |
| 20260905155910 | 25 | 71 | 0.0 | 0.0 | 0.00 | 0.69 | 0.03 | 87 | 1013.1 |
| 20260905155404 | 25 | 71 | 0.0 | 1.6 | 0.00 | 0.69 | 0.03 | 87 | 1013.0 |
| 20260905154900 | 25 | 71 | 0.0 | 1.6 | 0.00 | 0.69 | 0.03 | 87 | 1013.0 |
| 20260905154400 | 25 | 73 | 0.0 | 1.6 | 0.00 | 0.69 | 0.03 | 86 | 1012.9 |
| 20260905154344 | 25 | 73 | 0.0 | 1.6 | 0.00 | 0.69 | 0.03 | 86 | 1012.8 |
| 20260905153401 | 25 | 73 | 0.0 | 3.2 | 0.00 | 0.69 | 0.03 | 86 | 1012.6 |
| 20260905152900 | 25 | 107 | 0.0 | 3.2 | 0.00 | 0.69 | 0.03 | 86 | 1012.6 |
| 20260905152359 | 25 | 75 | 0.0 | 1.6 | 0.00 | 0.69 | 0.03 | 86 | 1012.5 |
| 20260905151857 | 25 | 107 | 0.0 | 3.2 | 0.00 | 0.69 | 0.03 | 86 | 1012.5 |
| 20260905151623 | 25 | 59 | 0.0 | 3.2 | 0.00 | 0.69 | 0.03 | 86 | 1012.7 |
| 20260905151123 | 25 | 32 | 0.0 | 3.2 | 0.00 | 0.69 | 0.03 | 85 | 1012.8 |
| 20260905150357 | 25 | 65 | 0.0 | 1.6 | 0.00 | 0.69 | 0.03 | 86 | 1012.9 |
| 20260905145857 | 25 | 96 | 0.0 | 1.6 | 0.00 | 0.69 | 0.03 | 86 | 1012.8 |
| 20260905145358 | 25 | 125 | 0.0 | 4.8 | 0.00 | 0.69 | 0.03 | 86 | 1012.8 |
| 20260905144859 | 25 | 125 | 0.0 | 4.8 | 0.00 | 0.69 | 0.03 | 86 | 1012.8 |
| 20260905144357 | 25 | 67 | 0.0 | 4.8 | 0.00 | 0.69 | 0.03 | 85 | 1012.9 |
| 20260905143900 | 25 | 31 | 0.0 | 4.8 | 0.00 | 0.69 | 0.03 | 85 | 1012.9 |
| 20260905143355 | 25 | 78 | 1.6 | 4.8 | 0.00 | 0.69 | 0.03 | 85 | 1012.9 |
| 20260905142855 | 25 | 58 | 0.0 | 4.8 | 0.00 | 0.69 | 0.03 | 86 | 1012.8 |
| 20260905142354 | 25 | 31 | 0.0 | 4.8 | 0.00 | 0.69 | 0.03 | 86 | 1012.8 |
| 20260905141849 | 25 | 42 | 0.0 | 4.8 | 0.00 | 0.69 | 0.03 | 85 | 1012.8 |
| 20260905141342 | 25 | 29 | 0.0 | 4.8 | 0.00 | 0.69 | 0.03 | 86 | 1012.8 |
| 20260905140836 | 25 | 123 | 0.0 | 3.2 | 0.00 | 0.69 | 0.03 | 87 | 1012.8 |
| 20260905140331 | 25 | 123 | 0.0 | 3.2 | 0.00 | 0.69 | 0.03 | 86 | 1012.7 |
| 20260905135824 | 25 | 65 | 0.0 | 3.2 | 0.00 | 0.69 | 0.03 | 87 | 1012.5 |
| 20260905135318 | 24 | 65 | 0.0 | 3.2 | 0.00 | 0.69 | 0.03 | 88 | 1012.4 |
| 20260905134812 | 24 | 87 | 0.0 | 3.2 | 0.00 | 0.69 | 0.03 | 89 | 1012.2 |
| 20260905134306 | 24 | 31 | 0.0 | 3.2 | 0.00 | 0.69 | 0.03 | 89 | 1012.1 |
| 20260905133800 | 24 | 90 | 1.6 | 4.8 | 0.00 | 0.69 | 0.03 | 89 | 1012.2 |
| 20260905133254 | 24 | 76 | 0.0 | 4.8 | 0.00 | 0.69 | 0.03 | 90 | 1012.1 |
| 20260905132748 | 23 | 89 | 1.6 | 4.8 | 0.00 | 0.69 | 0.03 | 91 | 1012.0 |
| 20260905132242 | 23 | 138 | 1.6 | 6.4 | 0.00 | 0.69 | 0.03 | 93 | 1012.0 |
| 20260905131736 | 23 | 97 | 1.6 | 6.4 | 0.00 | 0.69 | 0.03 | 94 | 1012.0 |
| 20260905131231 | 22 | 111 | 0.0 | 1.6 | 0.00 | 0.69 | 0.03 | 96 | 1011.9 |
| 20260905130724 | 22 | 86 | 0.0 | 1.6 | 0.00 | 0.69 | 0.03 | 97 | 1012.1 |
| 20260905130218 | 22 | 86 | 0.0 | 1.6 | 0.00 | 0.69 | 0.03 | 96 | 1012.1 |
| 20260905125712 | 22 | 57 | 0.0 | 1.6 | 0.00 | 0.69 | 0.03 | 96 | 1012.0 |
| 20260905125206 | 21 | 67 | 0.0 | 6.4 | 0.00 | 0.69 | 0.03 | 96 | 1012.0 |
| 20260905124700 | 21 | 67 | 0.0 | 6.4 | 0.00 | 0.69 | 0.03 | 96 | 1012.0 |
| 20260905124154 | 21 | 346 | 0.0 | 1.6 | 0.00 | 0.69 | 0.03 | 96 | 1012.0 |
| 20260905123648 | 21 | 26 | 0.0 | 0.0 | 0.00 | 0.69 | 0.03 | 96 | 1012.0 |
| 20260905123142 | 21 | 26 | 0.0 | 0.0 | 0.00 | 0.69 | 0.03 | 96 | 1012.1 |
| 20260905122635 | 21 | 26 | 0.0 | 1.6 | 0.00 | 0.69 | 0.03 | 96 | 1012.0 |
| 20260905122131 | 21 | 26 | 0.0 | 1.6 | 0.00 | 0.69 | 0.03 | 96 | 1012.0 |
| 20260905121624 | 21 | 26 | 0.0 | 1.6 | 0.00 | 0.69 | 0.03 | 96 | 1011.8 |
| 20260905121118 | 21 | 26 | 0.0 | 1.6 | 0.00 | 0.69 | 0.03 | 96 | 1011.9 |
| 20260905120613 | 21 | 26 | 0.0 | 1.6 | 0.00 | 0.69 | 0.03 | 96 | 1011.9 |
| 20260905120331 | 21 | 29 | 0.0 | 1.6 | 0.00 | 0.69 | 0.03 | 96 | 1011.9 |
| 20260905115600 | 20 | 19 | 0.0 | 0.0 | 0.00 | 0.69 | 0.03 | 96 | 1011.8 |
| 20260905115054 | 20 | 19 | 0.0 | 0.0 | 0.00 | 0.69 | 0.03 | 96 | 1011.9 |
| 20260905114548 | 20 | 19 | 0.0 | 0.0 | 0.00 | 0.69 | 0.03 | 96 | 1011.8 |
| 20260905114041 | 20 | 20 | 0.0 | 0.0 | 0.00 | 0.69 | 0.03 | 96 | 1011.7 |
| 20260905113536 | 20 | 20 | 0.0 | 0.0 | 0.00 | 0.69 | 0.03 | 96 | 1011.6 |
| 20260905113248 | 20 | 20 | 0.0 | 1.6 | 0.00 | 0.69 | 0.03 | 96 | 1011.6 |
| 20260905112524 | 20 | 19 | 0.0 | 1.6 | 0.00 | 0.69 | 0.03 | 95 | 1011.6 |
| 20260905112017 | 20 | 19 | 0.0 | 3.2 | 0.00 | 0.69 | 0.03 | 95 | 1011.6 |
| 20260905111512 | 20 | 19 | 0.0 | 3.2 | 0.00 | 0.69 | 0.03 | 95 | 1011.6 |
| 20260905111226 | 20 | 19 | 0.0 | 3.2 | 0.00 | 0.69 | 0.03 | 95 | 1011.7 |
| 20260905110500 | 20 | 19 | 0.0 | 3.2 | 0.00 | 0.69 | 0.03 | 95 | 1011.7 |
| 20260905105955 | 20 | 19 | 0.0 | 3.2 | 0.00 | 0.69 | 0.03 | 95 | 1011.6 |
| 20260905105448 | 20 | 19 | 0.0 | 3.2 | 0.00 | 0.69 | 0.03 | 95 | 1011.4 |
| 20260905104942 | 20 | 19 | 0.0 | 1.6 | 0.00 | 0.69 | 0.03 | 95 | 1011.3 |
| 20260905104436 | 20 | 20 | 0.0 | 1.6 | 0.00 | 0.69 | 0.03 | 95 | 1011.1 |
| 20260905103930 | 20 | 19 | 0.0 | 0.0 | 0.00 | 0.69 | 0.03 | 95 | 1011.0 |
| 20260905103425 | 20 | 20 | 0.0 | 0.0 | 0.00 | 0.69 | 0.03 | 95 | 1011.0 |
| 20260905102919 | 20 | 20 | 0.0 | 0.0 | 0.00 | 0.69 | 0.03 | 95 | 1010.9 |
| 20260905102633 | 20 | 19 | 0.0 | 0.0 | 0.00 | 0.69 | 0.03 | 95 | 1010.9 |
| 20260905101906 | 20 | 20 | 0.0 | 0.0 | 0.00 | 0.69 | 0.03 | 95 | 1011.0 |
| 20260905101627 | 20 | 20 | 0.0 | 0.0 | 0.00 | 0.69 | 0.03 | 95 | 1010.9 |
| 20260905100854 | 20 | 20 | 0.0 | 0.0 | 0.00 | 0.69 | 0.03 | 95 | 1010.8 |
| 20260905100348 | 20 | 19 | 0.0 | 0.0 | 0.00 | 0.69 | 0.03 | 95 | 1010.8 |
| 20260905095842 | 20 | 20 | 0.0 | 0.0 | 0.00 | 0.69 | 0.03 | 95 | 1010.7 |
| 20260905095336 | 20 | 20 | 0.0 | 0.0 | 0.00 | 0.69 | 0.03 | 95 | 1010.7 |
| 20260905094830 | 20 | 19 | 0.0 | 1.6 | 0.00 | 0.69 | 0.03 | 95 | 1010.7 |
| 20260905094330 | 20 | 19 | 0.0 | 1.6 | 0.00 | 0.69 | 0.03 | 95 | 1010.7 |
| 20260905093827 | 20 | 19 | 0.0 | 1.6 | 0.00 | 0.69 | 0.03 | 95 | 1010.7 |
| 20260905093550 | 20 | 351 | 0.0 | 1.6 | 0.00 | 0.69 | 0.03 | 95 | 1010.7 |
| 20260905092824 | 20 | 351 | 0.0 | 1.6 | 0.00 | 0.69 | 0.03 | 95 | 1010.7 |
| 20260905092545 | 20 | 351 | 0.0 | 1.6 | 0.00 | 0.69 | 0.03 | 95 | 1010.6 |
| 20260905091821 | 20 | 350 | 0.0 | 1.6 | 0.00 | 0.69 | 0.03 | 95 | 1010.6 |
| 20260905091811 | 20 | 287 | 0.0 | 1.6 | 0.00 | 0.69 | 0.03 | 95 | 1010.6 |
| 20260905090819 | 20 | 287 | 0.0 | 1.6 | 0.00 | 0.69 | 0.03 | 95 | 1010.8 |
| 20260905090317 | 20 | 286 | 0.0 | 1.6 | 0.00 | 0.69 | 0.03 | 95 | 1010.7 |
| 20260905085817 | 20 | 286 | 0.0 | 0.0 | 0.00 | 0.69 | 0.03 | 95 | 1010.7 |
| 20260905085318 | 20 | 286 | 0.0 | 0.0 | 0.00 | 0.69 | 0.03 | 95 | 1010.7 |
| 20260905084815 | 20 | 286 | 0.0 | 0.0 | 0.00 | 0.69 | 0.03 | 95 | 1010.8 |
| 20260905084314 | 20 | 286 | 0.0 | 0.0 | 0.00 | 0.69 | 0.03 | 95 | 1010.8 |
| 20260905083812 | 20 | 286 | 0.0 | 0.0 | 0.00 | 0.69 | 0.03 | 95 | 1010.7 |
| 20260905083310 | 20 | 286 | 0.0 | 0.0 | 0.00 | 0.69 | 0.03 | 95 | 1010.8 |
| 20260905082809 | 21 | 286 | 0.0 | 0.0 | 0.00 | 0.69 | 0.03 | 95 | 1010.8 |
| 20260905082310 | 21 | 286 | 0.0 | 0.0 | 0.00 | 0.69 | 0.03 | 95 | 1010.8 |
| 20260905081808 | 21 | 286 | 0.0 | 0.0 | 0.00 | 0.69 | 0.03 | 95 | 1010.8 |
| 20260905081528 | 21 | 286 | 0.0 | 0.0 | 0.00 | 0.69 | 0.03 | 95 | 1010.9 |
| 20260905080805 | 21 | 286 | 0.0 | 0.0 | 0.00 | 0.69 | 0.03 | 95 | 1011.0 |
| 20260905080307 | 21 | 286 | 0.0 | 1.6 | 0.00 | 0.69 | 0.03 | 95 | 1011.0 |
| 20260905080031 | 21 | 286 | 0.0 | 1.6 | 0.00 | 0.69 | 0.03 | 95 | 1011.0 |
| 20260905075306 | 21 | 286 | 0.0 | 0.0 | 0.00 | 0.69 | 0.03 | 95 | 1011.1 |
| 20260905074805 | 21 | 286 | 0.0 | 0.0 | 0.00 | 0.69 | 0.03 | 95 | 1011.3 |
| 20260905074305 | 21 | 286 | 0.0 | 0.0 | 0.03 | 0.69 | 0.03 | 95 | 1011.3 |
| 20260905074026 | 21 | 286 | 0.0 | 0.0 | 0.03 | 0.69 | 0.03 | 95 | 1011.3 |
| 20260905073530 | 21 | 286 | 0.0 | 0.0 | 0.03 | 0.69 | 0.03 | 95 | 1011.2 |
| 20260905072800 | 21 | 286 | 0.0 | 0.0 | 0.03 | 0.69 | 0.03 | 95 | 1011.2 |
| 20260905072305 | 21 | 286 | 0.0 | 0.0 | 0.03 | 0.69 | 0.03 | 95 | 1011.3 |
| 20260905071802 | 21 | 286 | 0.0 | 0.0 | 0.03 | 0.69 | 0.03 | 95 | 1011.3 |
| 20260905071301 | 21 | 286 | 0.0 | 0.0 | 0.03 | 0.69 | 0.03 | 95 | 1011.3 |
| 20260905070802 | 21 | 286 | 0.0 | 0.0 | 0.03 | 0.69 | 0.03 | 95 | 1011.4 |
| 20260905070300 | 21 | 286 | 0.0 | 0.0 | 0.03 | 0.69 | 0.03 | 95 | 1011.4 |
| 20260905065802 | 21 | 286 | 0.0 | 0.0 | 0.03 | 0.69 | 0.03 | 95 | 1011.4 |
| 20260905065301 | 21 | 286 | 0.0 | 0.0 | 0.03 | 0.69 | 0.03 | 95 | 1011.5 |
| 20260905064802 | 21 | 286 | 0.0 | 0.0 | 0.03 | 0.69 | 0.03 | 95 | 1011.5 |
| 20260905064257 | 21 | 286 | 0.0 | 0.0 | 0.00 | 0.66 | 0.03 | 95 | 1011.6 |
| 20260905063757 | 21 | 286 | 0.0 | 0.0 | 0.00 | 0.66 | 0.00 | 95 | 1011.8 |
| 20260905063258 | 21 | 286 | 0.0 | 0.0 | 0.00 | 0.66 | 0.00 | 95 | 1011.9 |
| 20260905062755 | 21 | 286 | 0.0 | 0.0 | 0.00 | 0.66 | 0.00 | 95 | 1012.0 |
| 20260905062253 | 21 | 286 | 0.0 | 1.6 | 0.00 | 0.66 | 0.00 | 95 | 1012.0 |
| 20260905061752 | 21 | 286 | 0.0 | 1.6 | 0.00 | 0.66 | 0.00 | 95 | 1012.2 |
| 20260905061250 | 21 | 9 | 0.0 | 0.0 | 0.00 | 0.66 | 0.00 | 95 | 1012.3 |
| 20260905060748 | 21 | 9 | 0.0 | 1.6 | 0.00 | 0.69 | 0.00 | 95 | 1012.3 |
| 20260905060247 | 21 | 9 | 0.0 | 1.6 | 0.00 | 0.69 | 0.00 | 95 | 1012.2 |
| 20260905055746 | 21 | 9 | 0.0 | 1.6 | 0.00 | 0.69 | 0.00 | 95 | 1012.3 |
| 20260905055247 | 21 | 9 | 0.0 | 1.6 | 0.00 | 0.69 | 0.00 | 95 | 1012.2 |
| 20260905054746 | 21 | 9 | 0.0 | 0.0 | 0.00 | 0.69 | 0.00 | 95 | 1012.3 |
| 20260905054245 | 21 | 9 | 0.0 | 0.0 | 0.00 | 0.69 | 0.00 | 95 | 1012.5 |
| 20260905053745 | 21 | 9 | 0.0 | 0.0 | 0.00 | 0.69 | 0.00 | 95 | 1012.5 |
| 20260905053507 | 21 | 9 | 0.0 | 0.0 | 0.00 | 0.69 | 0.00 | 95 | 1012.5 |
| 20260905052745 | 21 | 9 | 0.0 | 0.0 | 0.00 | 0.71 | 0.00 | 95 | 1012.5 |
| 20260905052239 | 21 | 9 | 0.0 | 1.6 | 0.00 | 0.74 | 0.00 | 95 | 1012.5 |
| 20260905051733 | 21 | 9 | 0.0 | 1.6 | 0.00 | 0.76 | 0.00 | 94 | 1012.5 |
| 20260905051227 | 21 | 9 | 0.0 | 1.6 | 0.00 | 0.76 | 0.00 | 94 | 1012.4 |
| 20260905050721 | 21 | 10 | 0.0 | 0.0 | 0.00 | 0.81 | 0.00 | 94 | 1012.6 |
| 20260905050215 | 21 | 10 | 0.0 | 0.0 | 0.00 | 0.86 | 0.00 | 94 | 1012.7 |
| 20260905045709 | 21 | 10 | 0.0 | 0.0 | 0.00 | 0.89 | 0.00 | 94 | 1012.7 |
| 20260905045203 | 21 | 10 | 0.0 | 0.0 | 0.00 | 0.94 | 0.00 | 94 | 1012.8 |
| 20260905044658 | 21 | 10 | 0.0 | 0.0 | 0.00 | 1.02 | 0.00 | 94 | 1012.8 |
| 20260905044150 | 21 | 10 | 0.0 | 1.6 | 0.00 | 1.09 | 0.00 | 94 | 1012.8 |
| 20260905043645 | 21 | 10 | 0.0 | 1.6 | 0.00 | 1.17 | 0.00 | 94 | 1013.0 |
| 20260905043402 | 21 | 10 | 0.0 | 1.6 | 0.00 | 1.27 | 0.00 | 94 | 1013.0 |
| 20260905042633 | 21 | 43 | 0.0 | 1.6 | 0.00 | 1.35 | 0.00 | 94 | 1012.9 |
| 20260905042127 | 21 | 5 | 0.0 | 3.2 | 0.00 | 1.42 | 0.00 | 94 | 1013.0 |
| 20260905041621 | 21 | 329 | 0.0 | 3.2 | 0.00 | 1.45 | 0.00 | 94 | 1013.1 |
| 20260905041116 | 22 | 196 | 0.0 | 1.6 | 0.00 | 1.45 | 0.00 | 94 | 1013.1 |
| 20260905040609 | 22 | 196 | 0.0 | 0.0 | 0.00 | 1.45 | 0.00 | 94 | 1013.1 |
| 20260905040329 | 22 | 196 | 0.0 | 0.0 | 0.00 | 1.45 | 0.00 | 94 | 1013.1 |
| 20260905035828 | 22 | 196 | 0.0 | 1.6 | 0.00 | 1.45 | 1.45 | 94 | 1013.2 |
| 20260905035058 | 22 | 196 | 0.0 | 1.6 | 0.00 | 1.45 | 1.45 | 94 | 1013.2 |
| 20260905034554 | 22 | 196 | 0.0 | 1.6 | 0.00 | 1.45 | 1.45 | 94 | 1013.2 |
| 20260905034316 | 22 | 196 | 0.0 | 1.6 | 0.00 | 1.45 | 1.45 | 94 | 1013.1 |
| 20260905033553 | 22 | 196 | 0.0 | 0.0 | 0.00 | 1.45 | 1.45 | 94 | 1013.2 |
| 20260905033049 | 22 | 196 | 0.0 | 0.0 | 0.00 | 1.45 | 1.45 | 94 | 1013.2 |
| 20260905032546 | 22 | 196 | 0.0 | 1.6 | 0.00 | 1.45 | 1.45 | 94 | 1013.1 |
| 20260905032045 | 22 | 196 | 0.0 | 1.6 | 0.00 | 1.45 | 1.45 | 94 | 1013.2 |
| 20260905031544 | 22 | 196 | 0.0 | 1.6 | 0.00 | 1.45 | 1.45 | 94 | 1013.2 |
| 20260905031310 | 22 | 196 | 0.0 | 1.6 | 0.00 | 1.45 | 1.45 | 94 | 1013.2 |
| 20260905030543 | 22 | 196 | 0.0 | 1.6 | 0.00 | 1.45 | 1.45 | 94 | 1013.4 |
| 20260905030044 | 22 | 148 | 0.0 | 0.0 | 0.00 | 1.45 | 1.45 | 94 | 1013.2 |
| 20260905025544 | 22 | 148 | 0.0 | 0.0 | 0.00 | 1.47 | 1.45 | 94 | 1013.0 |
| 20260905025041 | 22 | 148 | 0.0 | 1.6 | 0.00 | 1.55 | 1.45 | 94 | 1013.1 |
| 20260905024539 | 22 | 148 | 0.0 | 1.6 | 0.00 | 1.60 | 1.45 | 94 | 1013.4 |
| 20260905024259 | 22 | 148 | 0.0 | 1.6 | 0.00 | 1.60 | 1.45 | 94 | 1013.2 |
| 20260905023537 | 22 | 153 | 0.0 | 1.6 | 0.00 | 1.60 | 1.45 | 94 | 1013.4 |
| 20260905023034 | 22 | 153 | 0.0 | 1.6 | 0.00 | 1.60 | 1.45 | 94 | 1013.2 |
| 20260905022532 | 22 | 136 | 0.0 | 0.0 | 0.00 | 1.60 | 1.45 | 94 | 1013.1 |
| 20260905022306 | 22 | 136 | 0.0 | 1.6 | 0.00 | 1.60 | 1.45 | 94 | 1013.2 |
| 20260905021527 | 22 | 136 | 0.0 | 1.6 | 0.00 | 1.60 | 1.45 | 94 | 1013.1 |
| 20260905021027 | 22 | 106 | 0.0 | 1.6 | 0.00 | 1.60 | 1.45 | 94 | 1013.1 |
| 20260905020520 | 22 | 106 | 0.0 | 0.0 | 0.00 | 1.60 | 1.45 | 94 | 1013.1 |
| 20260905020015 | 22 | 106 | 0.0 | 0.0 | 0.00 | 1.60 | 1.45 | 94 | 1013.0 |
| 20260905015509 | 22 | 106 | 0.0 | 0.0 | 0.00 | 1.60 | 1.45 | 94 | 1013.0 |
| 20260905015235 | 22 | 106 | 0.0 | 0.0 | 0.00 | 1.60 | 1.45 | 94 | 1012.9 |
| 20260905014728 | 22 | 106 | 0.0 | 0.0 | 0.00 | 1.60 | 1.45 | 94 | 1012.9 |
| 20260905014213 | 22 | 106 | 0.0 | 0.0 | 0.00 | 1.60 | 1.45 | 94 | 1012.9 |
| 20260905013445 | 22 | 106 | 0.0 | 0.0 | 0.00 | 1.60 | 1.45 | 94 | 1012.8 |
| 20260905013203 | 22 | 106 | 0.0 | 0.0 | 0.00 | 1.60 | 1.45 | 93 | 1012.7 |
| 20260905012434 | 22 | 106 | 0.0 | 1.6 | 0.00 | 1.60 | 1.45 | 93 | 1012.5 |
| 20260905011927 | 23 | 106 | 0.0 | 1.6 | 0.00 | 1.60 | 1.45 | 93 | 1012.3 |
| 20260905011421 | 23 | 106 | 0.0 | 0.0 | 0.00 | 1.60 | 1.45 | 94 | 1012.4 |
| 20260905011407 | 23 | 106 | 0.0 | 0.0 | 0.00 | 1.60 | 1.45 | 94 | 1012.3 |
| 20260905010409 | 23 | 106 | 0.0 | 0.0 | 0.00 | 1.60 | 1.45 | 94 | 1012.2 |
| 20260905005904 | 23 | 106 | 0.0 | 1.6 | 0.00 | 1.60 | 1.45 | 93 | 1012.3 |
| 20260905005357 | 23 | 106 | 0.0 | 3.2 | 0.00 | 1.60 | 1.45 | 93 | 1012.1 |
| 20260905005117 | 23 | 106 | 0.0 | 3.2 | 0.00 | 1.60 | 1.45 | 93 | 1012.1 |
| 20260905004345 | 23 | 261 | 0.0 | 1.6 | 0.00 | 1.60 | 1.45 | 93 | 1012.0 |
| 20260905003839 | 23 | 261 | 0.0 | 1.6 | 0.00 | 1.60 | 1.45 | 93 | 1011.9 |
| 20260905003334 | 23 | 261 | 0.0 | 1.6 | 0.00 | 1.60 | 1.45 | 93 | 1012.1 |
| 20260905002827 | 23 | 261 | 0.0 | 1.6 | 0.00 | 1.60 | 1.45 | 93 | 1012.0 |
| 20260905002321 | 23 | 261 | 0.0 | 0.0 | 0.00 | 1.60 | 1.45 | 93 | 1012.0 |
| 20260905001815 | 23 | 261 | 0.0 | 0.0 | 0.00 | 1.60 | 1.45 | 93 | 1012.0 |
| 20260905001310 | 23 | 261 | 0.0 | 0.0 | 0.00 | 1.60 | 1.45 | 93 | 1012.0 |
| 20260905000802 | 23 | 261 | 0.0 | 0.0 | 0.00 | 1.60 | 1.45 | 93 | 1011.9 |
| 20260905000257 | 23 | 261 | 0.0 | 0.0 | 0.00 | 1.60 | 1.45 | 93 | 1012.1 |
| 20260904235750 | 23 | 261 | 0.0 | 1.6 | 0.00 | 1.60 | 1.45 | 93 | 1012.2 |
| 20260904235245 | 23 | 261 | 0.0 | 1.6 | 0.00 | 1.60 | 1.45 | 93 | 1012.4 |
| 20260904234739 | 23 | 261 | 0.0 | 1.6 | 0.00 | 1.60 | 1.45 | 93 | 1012.6 |
| 20260904234234 | 23 | 261 | 0.0 | 0.0 | 0.00 | 1.60 | 1.45 | 93 | 1012.5 |
| 20260904233727 | 23 | 261 | 0.0 | 0.0 | 0.00 | 1.60 | 1.45 | 93 | 1012.6 |
| 20260904233221 | 23 | 261 | 0.0 | 0.0 | 0.00 | 1.60 | 1.45 | 93 | 1012.6 |
| 20260904232716 | 23 | 261 | 0.0 | 0.0 | 0.00 | 1.60 | 1.45 | 93 | 1012.6 |
| 20260904232209 | 23 | 261 | 0.0 | 0.0 | 0.00 | 1.60 | 1.45 | 93 | 1012.3 |
| 20260904231703 | 23 | 261 | 0.0 | 0.0 | 0.00 | 1.60 | 1.45 | 93 | 1012.2 |
| 20260904231157 | 23 | 261 | 0.0 | 0.0 | 0.00 | 1.60 | 1.45 | 93 | 1012.2 |
| 20260904230651 | 23 | 261 | 0.0 | 1.6 | 0.00 | 1.60 | 1.45 | 92 | 1012.2 |
| 20260904230144 | 23 | 261 | 0.0 | 1.6 | 0.00 | 1.60 | 1.45 | 92 | 1012.3 |
| 20260904225639 | 23 | 261 | 0.0 | 1.6 | 0.00 | 1.60 | 1.45 | 92 | 1012.2 |
| 20260904225133 | 23 | 261 | 0.0 | 1.6 | 0.00 | 1.60 | 1.45 | 92 | 1012.2 |
| 20260904224628 | 23 | 261 | 0.0 | 0.0 | 0.00 | 1.60 | 1.45 | 92 | 1012.4 |
| 20260904224122 | 23 | 261 | 0.0 | 1.6 | 0.00 | 1.60 | 1.45 | 92 | 1012.2 |
| 20260904224059 | 23 | 261 | 0.0 | 0.0 | 0.00 | 1.60 | 1.45 | 92 | 1012.3 |
| 20260904223109 | 23 | 261 | 0.0 | 0.0 | 0.00 | 1.60 | 1.45 | 91 | 1012.1 |
| 20260904222604 | 23 | 261 | 0.0 | 0.0 | 0.00 | 1.60 | 1.45 | 91 | 1012.2 |
| 20260904222057 | 23 | 261 | 0.0 | 0.0 | 0.00 | 1.60 | 1.45 | 91 | 1012.2 |
| 20260904221550 | 23 | 261 | 0.0 | 1.6 | 0.00 | 1.60 | 1.45 | 91 | 1012.1 |
| 20260904221309 | 23 | 261 | 0.0 | 1.6 | 0.00 | 1.60 | 1.45 | 91 | 1012.3 |
| 20260904220539 | 23 | 261 | 0.0 | 1.6 | 0.00 | 1.60 | 1.45 | 91 | 1012.6 |
| 20260904220036 | 23 | 261 | 0.0 | 0.0 | 0.00 | 1.60 | 1.45 | 90 | 1012.6 |
| 20260904220014 | 23 | 261 | 0.0 | 0.0 | 0.00 | 1.60 | 1.45 | 90 | 1013.0 |
| 20260904215021 | 23 | 261 | 0.0 | 0.0 | 0.03 | 1.60 | 1.45 | 90 | 1013.2 |
| 20260904214515 | 23 | 261 | 0.0 | 1.6 | 0.08 | 1.60 | 1.45 | 89 | 1013.2 |
| 20260904214228 | 23 | 261 | 0.0 | 1.6 | 0.15 | 1.60 | 1.45 | 89 | 1013.7 |
| 20260904213503 | 24 | 261 | 0.0 | 1.6 | 0.23 | 1.60 | 1.45 | 88 | 1013.7 |
| 20260904212957 | 24 | 261 | 0.0 | 1.6 | 0.33 | 1.60 | 1.45 | 88 | 1013.8 |
| 20260904212451 | 24 | 261 | 0.0 | 1.6 | 0.48 | 1.60 | 1.45 | 88 | 1013.8 |
| 20260904211945 | 24 | 313 | 0.0 | 1.6 | 0.64 | 1.60 | 1.45 | 87 | 1013.8 |
| 20260904211439 | 25 | 331 | 0.0 | 1.6 | 0.66 | 1.60 | 1.45 | 87 | 1013.4 |
| 20260904210934 | 25 | 66 | 0.0 | 1.6 | 0.66 | 1.60 | 1.45 | 86 | 1013.0 |
| 20260904210427 | 25 | 66 | 0.0 | 1.6 | 0.66 | 1.60 | 1.45 | 85 | 1013.0 |
| 20260904205921 | 25 | 66 | 0.0 | 1.6 | 0.66 | 1.60 | 1.45 | 85 | 1012.6 |
| 20260904205639 | 25 | 66 | 0.0 | 1.6 | 0.66 | 1.60 | 1.45 | 84 | 1012.8 |
| 20260904205146 | 26 | 63 | 0.0 | 3.2 | 0.64 | 1.57 | 1.42 | 82 | 1012.8 |
| 20260904204642 | 26 | 99 | 1.6 | 11.3 | 0.58 | 1.52 | 1.37 | 80 | 1012.6 |
| 20260904203919 | 26 | 44 | 3.2 | 16.1 | 0.51 | 1.45 | 1.30 | 79 | 1013.1 |
| 20260904203913 | 27 | 115 | 4.8 | 16.1 | 0.41 | 1.35 | 1.22 | 78 | 1013.8 |
| 20260904202919 | 28 | 345 | 4.8 | 19.3 | 0.30 | 1.24 | 1.09 | 79 | 1013.6 |
| 20260904202642 | 29 | 108 | 6.4 | 19.3 | 0.13 | 1.07 | 0.94 | 78 | 1013.5 |
| 20260904201918 | 30 | 46 | 3.2 | 17.7 | 0.00 | 0.94 | 0.79 | 78 | 1013.7 |
| 20260904201418 | 30 | 10 | 0.0 | 3.2 | 0.00 | 0.94 | 0.79 | 77 | 1013.5 |
| 20260904200920 | 30 | 254 | 0.0 | 0.0 | 0.00 | 0.94 | 0.79 | 76 | 1013.1 |
| 20260904200416 | 30 | 254 | 0.0 | 1.6 | 0.00 | 0.94 | 0.79 | 76 | 1013.1 |
| 20260904195916 | 30 | 254 | 0.0 | 1.6 | 0.00 | 0.94 | 0.79 | 76 | 1012.8 |
| 20260904195907 | 31 | 254 | 0.0 | 0.0 | 0.00 | 0.94 | 0.79 | 76 | 1012.4 |
| 20260904194913 | 31 | 254 | 0.0 | 0.0 | 0.00 | 0.94 | 0.79 | 75 | 1012.2 |
| 20260904194902 | 31 | 254 | 0.0 | 1.6 | 0.00 | 0.94 | 0.79 | 73 | 1012.3 |
| 20260904193912 | 31 | 254 | 0.0 | 1.6 | 0.00 | 0.94 | 0.79 | 73 | 1012.6 |
| 20260904193416 | 31 | 254 | 0.0 | 0.0 | 0.00 | 0.94 | 0.79 | 74 | 1012.9 |
| 20260904192913 | 31 | 254 | 0.0 | 0.0 | 0.00 | 0.94 | 0.79 | 73 | 1012.9 |
| 20260904192413 | 30 | 254 | 0.0 | 0.0 | 0.00 | 0.94 | 0.79 | 74 | 1012.8 |
| 20260904191913 | 30 | 254 | 0.0 | 0.0 | 0.00 | 0.94 | 0.79 | 72 | 1012.9 |
| 20260904191412 | 31 | 254 | 0.0 | 0.0 | 0.00 | 0.94 | 0.79 | 72 | 1012.9 |
| 20260904190912 | 31 | 254 | 0.0 | 0.0 | 0.00 | 0.94 | 0.79 | 69 | 1012.8 |
| 20260904190408 | 32 | 254 | 0.0 | 1.6 | 0.00 | 0.94 | 0.79 | 66 | 1012.9 |
| 20260904185909 | 32 | 254 | 0.0 | 3.2 | 0.00 | 0.94 | 0.79 | 64 | 1012.8 |
| 20260904185407 | 32 | 254 | 0.0 | 3.2 | 0.00 | 0.94 | 0.79 | 60 | 1012.8 |
| 20260904185129 | 33 | 292 | 1.6 | 4.8 | 0.00 | 0.94 | 0.79 | 58 | 1012.8 |
| 20260904184408 | 34 | 332 | 1.6 | 4.8 | 0.00 | 0.94 | 0.79 | 54 | 1012.9 |
| 20260904183909 | 34 | 230 | 1.6 | 4.8 | 0.00 | 0.94 | 0.79 | 57 | 1013.1 |
| 20260904183408 | 35 | 144 | 0.0 | 4.8 | 0.00 | 0.94 | 0.79 | 53 | 1013.2 |
| 20260904183138 | 34 | 135 | 1.6 | 4.8 | 0.00 | 0.94 | 0.79 | 56 | 1013.4 |
| 20260904182409 | 35 | 128 | 1.6 | 4.8 | 0.00 | 0.94 | 0.79 | 55 | 1013.5 |
| 20260904181908 | 34 | 52 | 1.6 | 4.8 | 0.00 | 0.94 | 0.79 | 54 | 1013.6 |
| 20260904181407 | 33 | 39 | 1.6 | 6.4 | 0.00 | 0.94 | 0.79 | 57 | 1013.7 |
| 20260904180907 | 34 | 322 | 1.6 | 6.4 | 0.00 | 0.94 | 0.79 | 54 | 1013.8 |
| 20260904180408 | 33 | 241 | 1.6 | 3.2 | 0.00 | 0.94 | 0.79 | 55 | 1013.8 |
| 20260904175906 | 33 | 142 | 1.6 | 8.0 | 0.00 | 0.94 | 0.79 | 58 | 1013.8 |
| 20260904175630 | 33 | 51 | 1.6 | 8.0 | 0.00 | 0.94 | 0.79 | 58 | 1013.9 |
| 20260904175352 | 32 | 226 | 1.6 | 4.8 | 0.00 | 0.94 | 0.79 | 56 | 1013.8 |
| 20260904174406 | 33 | 313 | 1.6 | 4.8 | 0.00 | 0.94 | 0.79 | 54 | 1013.9 |
| 20260904173903 | 33 | 38 | 1.6 | 6.4 | 0.00 | 0.94 | 0.79 | 56 | 1014.0 |
| 20260904173403 | 33 | 313 | 3.2 | 6.4 | 0.00 | 0.94 | 0.79 | 57 | 1014.0 |
| 20260904172904 | 33 | 95 | 3.2 | 6.4 | 0.00 | 0.94 | 0.79 | 59 | 1014.0 |
| 20260904172406 | 32 | 202 | 3.2 | 11.3 | 0.00 | 0.94 | 0.79 | 57 | 1014.1 |
| 20260904171903 | 33 | 84 | 1.6 | 11.3 | 0.00 | 0.94 | 0.79 | 57 | 1014.2 |
| 20260904171402 | 32 | 159 | 1.6 | 8.0 | 0.00 | 0.94 | 0.79 | 58 | 1014.2 |
| 20260904170902 | 32 | 296 | 1.6 | 4.8 | 0.00 | 0.94 | 0.79 | 59 | 1014.2 |
| 20260904170402 | 32 | 276 | 3.2 | 6.4 | 0.00 | 0.94 | 0.79 | 60 | 1014.2 |
| 20260904165902 | 32 | 248 | 1.6 | 6.4 | 0.00 | 0.94 | 0.79 | 59 | 1014.2 |
| 20260904165623 | 32 | 131 | 1.6 | 6.4 | 0.00 | 0.94 | 0.79 | 56 | 1014.3 |
| 20260904165131 | 32 | 289 | 3.2 | 6.4 | 0.00 | 0.94 | 0.79 | 59 | 1014.3 |
| 20260904164400 | 32 | 71 | 3.2 | 9.7 | 0.00 | 0.94 | 0.79 | 58 | 1014.3 |
| 20260904163857 | 32 | 53 | 3.2 | 9.7 | 0.00 | 0.94 | 0.79 | 61 | 1014.5 |
| 20260904163626 | 32 | 60 | 3.2 | 9.7 | 0.00 | 0.94 | 0.79 | 60 | 1014.5 |
| 20260904162900 | 32 | 121 | 1.6 | 9.7 | 0.00 | 0.94 | 0.79 | 62 | 1014.6 |
| 20260904162359 | 31 | 145 | 1.6 | 9.7 | 0.00 | 0.94 | 0.79 | 64 | 1014.7 |
| 20260904161857 | 31 | 257 | 1.6 | 8.0 | 0.00 | 0.94 | 0.79 | 63 | 1014.6 |